TIME,DELAY(SENSOR),PRES,OXYGEN,RAWTEMP,T(OPTODE),TCPHASE,FLUOR,BETA(BETA700),BETA(BETA412),BETA(BETA440),CDOM,C(CSC),ED(ED412.40),ED(ED444.00),ED(ED489.70),ED(ED554.30),LU(LU411.80),LU(LU443.40),LU(LU489.60),LU(LU554.10),COMP,TILTX,TILTY,CHECK
1346212116,5811,857.4799804687500000,47.1068115234375000,662.6851806640625000,4.5395298004150390,53.9811401367187500,52,100,87,79,80,15274,2147753746,2147422107,2148008054,2147873627,2147640640,2147060205,2148257536,2147199378,26,5,13,47114
1346215712,5808,955.8900146484375000,50.5143394470214840,670.7905273437500000,4.2720789909362790,53.6057395935058600,52,110,84,79,81,15271,2147756242,2147421549,2148011885,2147877147,2147641691,2147057270,2148260114,2147198089,3341,5,13,34316
1346219312,5811,964.7500000000000000,51.2173805236816400,671.8309936523438000,4.2376937866210940,53.5252113342285160,53,98,89,80,81,15273,2147759350,2147421302,2148009042,2147877339,2147641353,2147050898,2148258130,2147197586,379,5,13,26044
1346222912,5811,989.0000000000000000,51.2376289367675800,673.7166748046875000,4.1753439903259280,53.5493507385253900,52,98,89,79,81,15271,2147759021,2147420918,2148009563,2147876370,2147646573,2147055122,2148255652,2147197997,44,5,13,36246
1346226512,5810,986.9299926757812000,51.9427986145019500,675.8325195312500000,4.1053328514099120,53.4799003601074200,52,98,89,79,81,15275,2147759478,2147421211,2148011062,2147870089,2147644242,2147060672,2148262043,2147198674,2921,5,13,40249
1346230112,5810,992.3300170898438000,52.1292114257812500,676.5095214843750000,4.0829238891601560,53.4635581970214840,52,98,89,80,82,15275,2147756918,2147423067,2148009920,2147875986,2147645229,2147056612,2148259730,2147197568,95,5,13,679
1346233712,5809,994.0999755859375000,51.9172706604003900,678.5214233398438000,4.0162911415100100,53.5135307312011700,53,99,84,78,82,15272,2147758317,2147422025,2148008365,2147874011,2147644626,2147050852,2148260909,2147196580,391,4,13,55547
1346237312,5808,987.6199951171875000,51.9407386779785160,678.5778808593750000,4.0144181251525880,53.5135192871093750,53,98,86,80,83,15273,2147756845,2147418998,2148007963,2147877193,2147643318,2147058358,2148258925,2147195949,458,5,13,14679
1346240912,5808,993.8400268554688000,51.7579498291015600,678.6237792968750000,4.0128960609436035,53.5365791320800800,51,99,89,80,80,15272,2147755355,2147423341,2148008557,2147874998,2147646034,2147057984,2148260260,2147196598,205,4,13,14622
1346244512,5812,996.0700073242188000,51.2398300170898440,678.6090087890625000,4.0133881568908690,53.6081504821777340,54,99,86,80,81,15253,2147759506,2147421138,2148008411,2147876461,2147644580,2147055341,2148260050,2147195190,275,5,13,1459
1346248112,5809,997.6300048828125000,51.7916488647460940,678.9572143554688000,4.0018482208251950,53.5394401550293000,53,98,85,79,82,15272,2147761865,2147422226,2148008557,2147878537,2147645723,2147063533,2148260105,2147196754,251,5,13,50098
1346251712,5812,1010.9799804687500000,51.7624397277832000,675.9926757812500000,4.1000308990478520,53.5041007995605500,52,97,92,78,80,15272,2147760438,2147419565,2148009984,2147875062,2147643629,2147054418,2148256731,2147197878,367,4,13,20174
1346255312,5808,998.5800170898438000,51.2756195068359400,675.7977294921875000,4.1064848899841310,53.5710792541503900,52,99,86,79,82,15271,2147757668,2147423561,2148008000,2147874934,2147646500,2147057645,2148258477,2147195108,30,5,13,19325
1346258912,5805,1004.5999755859375000,51.6581916809082000,676.3488769531250000,4.0882401466369630,53.5208702087402340,53,98,91,79,81,15266,2147761353,2147420726,2148010569,2147876717,2147645878,2147055341,2148258614,2147194203,286,5,13,10677
1346262512,5806,994.9799804687500000,51.4915809631347660,678.5593872070312000,4.0150299072265625,53.5765113830566400,52,111,87,79,81,15270,2147758162,2147424219,2148009051,2147876406,2147642651,2147058176,2148262957,2147196470,633,5,13,45603
1346266112,5810,1000.8300170898438000,51.5738182067871100,678.8571777343750000,4.0051608085632320,53.5666389465332000,52,97,90,79,82,15242,2147760804,2147421147,2148008859,2147877668,2147644544,2147058742,2148266633,2147199232,3328,5,13,56562
1346269712,5806,999.4400024414062000,51.0421905517578100,679.8876953125000000,3.9710121154785156,53.6510887145996100,53,97,90,80,81,15247,2147760585,2147421924,2148008996,2147874349,2147645613,2147056045,2148260836,2147197028,101,5,13,64138
1346273312,5809,998.9299926757812000,50.9990806579589840,680.1633300781250000,3.9618780612945557,53.6597709655761700,52,98,85,79,83,15245,2147758966,2147420653,2148009627,2147873517,2147645577,2147053659,2148261814,2147196361,270,4,13,10793
1346276912,5807,997.0499877929688000,50.7424201965332000,680.8831787109375000,3.9380090236663820,53.7066802978515600,52,99,87,79,82,15237,2147757814,2147421997,2148008969,2147873645,2147646354,2147059657,2148263369,2147197394,3579,5,14,19929
1346280512,5808,1002.1900024414062000,50.8017387390136700,680.1665039062500000,3.9617710113525390,53.6870307922363300,52,99,87,79,81,15238,2147758070,2147424566,2148007314,2147874020,2147647250,2147059346,2148257554,2147196699,322,5,13,1966
1346284112,5810,1003.4799804687500000,50.3633804321289060,679.5792236328125000,3.9812359809875490,53.7402191162109400,53,96,88,79,82,15243,2147761206,2147422838,2148008539,2147873481,2147645961,2147060452,2148260214,2147195401,384,5,13,2976
1346287712,5808,1003.8400268554688000,50.6240501403808600,679.1707153320312000,3.9947760105133057,53.6995201110839840,53,99,89,79,80,15239,2147762806,2147422061,2148008758,2147874834,2147645668,2147059876,2148256923,2147196900,121,5,13,16874
1346291312,5807,1016.7600097656250000,51.2475891113281250,677.8189697265625000,4.0395579338073730,53.6009902954101560,53,98,87,80,81,15201,2147759204,2147423478,2148007177,2147877092,2147640777,2147054208,2148263762,2147197760,304,5,13,40613
1346294912,5809,1015.7600097656250000,51.2845001220703100,675.5886230468750000,4.1134071350097660,53.5675315856933600,53,99,89,79,81,15201,2147763264,2147419117,2148008822,2147875008,2147644955,2147060608,2148257225,2147197293,198,5,13,63042
1346298512,5807,1018.4299926757812000,50.6803016662597660,675.0579223632812000,4.1309719085693360,53.6404609680175800,53,98,85,79,81,15202,2147760182,2147421513,2148008246,2147872219,2147644425,2147057197,2148260068,2147197860,3591,4,13,52428
1346302112,5810,1016.0200195312500000,50.4653282165527340,675.5032958984375000,4.1162300109863280,53.6728706359863300,53,101,87,79,81,15197,2147756736,2147422500,2148006902,2147872658,2147642688,2147060781,2148259008,2147197302,70,5,13,40677
1346305712,5805,1004.7299804687500000,51.4051094055175800,677.4733886718750000,4.0510039329528810,53.5740814208984400,53,101,86,78,81,15197,2147762249,2147420480,2148006683,2147873435,2147643035,2147060580,2148261357,2147194240,2930,5,13,36814
1346309312,5810,1013.9000244140625000,51.4711112976074200,677.0869750976562000,4.0638008117675780,53.5555114746093750,53,121,87,80,81,15197,2147758372,2147419026,2148006573,2147872320,2147640347,2147058240,2148263725,2147197833,3333,5,13,63610
1346312912,5807,1013.6099853515625000,50.7723999023437500,678.2468872070312000,4.0253829956054690,53.6680297851562500,53,97,86,78,81,15195,2147758674,2147418441,2148008420,2147874788,2147644534,2147060699,2148262601,2147198866,3538,5,13,14100
1346316512,5810,1017.0599975585938000,50.7938499450683600,678.3201293945312000,4.0229568481445310,53.6646804809570300,52,99,89,81,83,15192,2147762669,2147419867,2148008347,2147871588,2147643949,2147060571,2148256795,2147200018,3473,5,13,25641
1346320112,5811,1009.8400268554688000,50.8994789123535160,678.8237304687500000,4.0062751770019530,53.6599998474121100,52,97,90,79,81,15193,2147759670,2147421641,2148006921,2147874651,2147646756,2147059081,2148258578,2147199341,19,5,13,41418
1346323712,5811,1004.6500244140625000,51.3856811523437500,680.5070190429688000,3.9504809379577637,53.6133308410644500,52,98,88,80,82,15192,2147760228,2147419940,2148009654,2147873014,2147645796,2147062582,2148260982,2147200713,352,5,13,18044
1346327312,5811,1011.1400146484375000,51.4502906799316400,680.7694702148438000,3.9417779445648193,53.6076698303222660,52,108,88,80,82,15176,2147760512,2147420480,2148008649,2147875867,2147647213,2147058989,2148261321,2147199195,56,5,13,31261
1346330912,5810,1007.1900024414062000,51.3435096740722660,679.9110717773438000,3.9702339172363280,53.6138191223144500,52,98,88,79,81,15180,2147758043,2147421732,2148009993,2147874157,2147645558,2147060717,2148260571,2147198985,3579,5,13,11412
1346334512,5808,1004.5999755859375000,51.1888999938964840,679.6185302734375000,3.9799330234527590,53.6292991638183600,53,98,87,79,82,15177,2147758930,2147421723,2148011940,2147873709,2147644306,2147058825,2148262784,2147201993,56,5,13,27312
1346338112,5809,1017.3099975585938000,51.5031814575195300,678.8173828125000000,4.0064830780029300,53.5789413452148440,52,101,87,80,81,15166,2147760228,2147422710,2148011858,2147872996,2147649764,2147059712,2148260736,2147197979,398,5,13,13541
1346341712,5809,1015.9299926757812000,50.9260902404785160,678.4772949218750000,4.0177497863769530,53.6521797180175800,53,100,86,79,83,15168,2147758326,2147420388,2148008722,2147872987,2147644214,2147060278,2148259684,2147201325,92,5,13,39642
1346345312,5809,1007.8699951171875000,51.1128883361816400,678.3015136718750000,4.0235772132873535,53.6206016540527340,52,98,88,78,82,15170,2147763456,2147420672,2148010614,2147876196,2147642550,2147058578,2148261348,2147196544,3210,5,13,36184
1346348912,5809,1002.9400024414062000,50.9360885620117200,679.8875732421875000,3.9710140228271484,53.6688194274902340,52,100,87,79,81,15167,2147762523,2147421732,2148010816,2147874825,2147645403,2147060507,2148259492,2147195364,353,5,13,61223
1346352512,5811,1011.2700195312500000,49.6820106506347660,680.6848754882812000,3.9445819854736330,53.8507881164550800,53,99,89,79,82,15168,2147760338,2147421696,2148008777,2147872941,2147644022,2147063981,2148258889,2147197860,142,5,13,9548
1346356112,5809,1008.2399902343750000,49.5373687744140600,680.3958129882812000,3.9541699886322020,53.8669013977050800,52,99,91,79,82,15166,2147757476,2147422125,2148009938,2147871926,2147645074,2147059611,2148263963,2147197878,278,5,13,13046
1346356256,5810,1007.3800048828125000,49.5382194519043000,680.3067016601562000,3.9571230411529540,53.8619689941406250,53,99,85,79,83,15244,2147759963,2147424192,2148009837,2147872932,2147647186,2147064768,2148264073,2147198902,94,5,13,27124
